Time,TemperatureF,DewpointF,PressureIn,WindDirection,WindDirectionDegrees,WindSpeedMPH,WindSpeedGustMPH,Humidity,HourlyPrecipIn,Conditions,Clouds,dailyrainin,SoftwareType,DateUTC
2013-09-15 00:02:00,-999.0,-99.9,-100.00,NW,320,11.0,16.0,-999,-99.99,,,-99.99,,2013-09-15 04:02:00,
2013-09-15 00:13:00,61.0,49.0,-100.00,NW,320,11.0,16.0,66,-99.99,,,-99.99,,2013-09-15 04:13:00,
2013-09-15 00:43:00,60.0,49.0,-100.00,NW,310,11.0,13.0,67,-99.99,,,-99.99,,2013-09-15 04:43:00,
2013-09-15 01:13:00,60.0,49.0,-100.00,NW,320,13.0,16.0,68,-99.99,,,-99.99,,2013-09-15 05:13:00,
2013-09-15 01:42:00,60.0,49.0,-100.00,NW,320,13.0,16.0,67,-99.99,,,-99.99,,2013-09-15 05:42:00,
2013-09-15 02:12:00,59.0,49.0,-100.00,NW,320,11.0,16.0,67,-99.99,,,-99.99,,2013-09-15 06:12:00,
2013-09-15 02:42:00,59.0,49.0,-100.00,NW,320,11.0,13.0,70,-99.99,,,-99.99,,2013-09-15 06:42:00,
2013-09-15 03:11:00,58.0,49.0,-100.00,NW,320,11.0,13.0,70,-99.99,,,-99.99,,2013-09-15 07:11:00,
2013-09-15 03:42:00,58.0,50.0,-100.00,NNW,330,9.0,11.0,72,-99.99,,,-99.99,,2013-09-15 07:42:00,
2013-09-15 04:11:00,58.0,49.0,-100.00,NNW,340,7.0,9.0,73,-99.99,,,-99.99,,2013-09-15 08:11:00,
2013-09-15 04:42:00,58.0,48.0,-100.00,NNW,340,7.0,9.0,69,-99.99,,,-99.99,,2013-09-15 08:42:00,
2013-09-15 05:11:00,57.0,47.0,-100.00,NNW,330,7.0,11.0,68,-99.99,,,-99.99,,2013-09-15 09:11:00,
2013-09-15 05:43:00,57.0,47.0,-100.00,NW,320,7.0,11.0,68,-99.99,,,-99.99,,2013-09-15 09:43:00,
2013-09-15 06:12:00,57.0,48.0,-100.00,NW,310,7.0,9.0,71,-99.99,,,-99.99,,2013-09-15 10:12:00,
2013-09-15 06:42:00,57.0,47.0,-100.00,NNW,330,9.0,11.0,70,-99.99,,,-99.99,,2013-09-15 10:42:00,
2013-09-15 07:12:00,56.0,47.0,-100.00,NNW,330,9.0,11.0,71,-99.99,,,-99.99,,2013-09-15 11:12:00,
2013-09-15 07:42:00,56.0,47.0,-100.00,NNW,330,7.0,11.0,71,-99.99,,,-99.99,,2013-09-15 11:42:00,
2013-09-15 08:12:00,56.0,47.0,-100.00,NW,310,7.0,9.0,72,-99.99,,,-99.99,,2013-09-15 12:12:00,
2013-09-15 08:42:00,57.0,48.0,-100.00,NW,320,4.0,7.0,71,-99.99,,,-99.99,,2013-09-15 12:42:00,
2013-09-15 09:11:00,56.0,47.0,-100.00,WNW,300,4.0,7.0,71,-99.99,,,-99.99,,2013-09-15 13:11:00,
2013-09-15 09:41:00,57.0,49.0,-100.00,West,270,7.0,9.0,72,-99.99,,,-99.99,,2013-09-15 13:41:00,
2013-09-15 10:11:00,57.0,48.0,-100.00,West,270,4.0,9.0,70,-99.99,,,-99.99,,2013-09-15 14:11:00,
2013-09-15 15:42:00,66.0,45.0,-100.00,SSW,210,9.0,11.0,46,-99.99,,,-99.99,,2013-09-15 19:42:00,
2013-09-15 16:11:00,67.0,46.0,-100.00,SW,230,7.0,11.0,46,-99.99,,,-99.99,,2013-09-15 20:11:00,
2013-09-15 16:42:00,68.0,46.0,-100.00,SW,220,7.0,9.0,44,-99.99,,,-99.99,,2013-09-15 20:42:00,
2013-09-15 17:11:00,69.0,45.0,-100.00,SSW,210,4.0,7.0,41,-99.99,,,-99.99,,2013-09-15 21:11:00,
2013-09-15 17:44:00,69.0,45.0,-100.00,SSW,210,4.0,7.0,41,-99.99,,,-99.99,,2013-09-15 21:44:00,
2013-09-15 18:14:00,70.0,45.0,-100.00,SSW,210,4.0,7.0,41,-99.99,,,-99.99,,2013-09-15 22:14:00,
2013-09-15 18:43:00,71.0,45.0,-100.00,SW,230,4.0,7.0,39,-99.99,,,-99.99,,2013-09-15 22:43:00,
2013-09-15 19:12:00,71.0,45.0,-100.00,WSW,240,4.0,7.0,39,-99.99,,,-99.99,,2013-09-15 23:12:00,
2013-09-15 20:11:00,68.0,53.0,-100.00,South,190,13.0,16.0,58,-99.99,,,-99.99,,2013-09-16 00:11:00,
2013-09-15 20:42:00,66.0,54.0,-100.00,South,190,11.0,13.0,65,-99.99,,,-99.99,,2013-09-16 00:42:00,
2013-09-15 21:12:00,66.0,55.0,-100.00,SSW,200,11.0,16.0,68,-99.99,,,-99.99,,2013-09-16 01:12:00,
2013-09-15 21:42:00,66.0,57.0,-100.00,South,190,11.0,13.0,72,-99.99,,,-99.99,,2013-09-16 01:42:00,
2013-09-15 22:12:00,66.0,57.0,-100.00,South,190,11.0,13.0,74,-99.99,,,-99.99,,2013-09-16 02:12:00,
2013-09-15 22:42:00,66.0,58.0,-100.00,South,190,11.0,13.0,75,-99.99,,,-99.99,,2013-09-16 02:42:00,
2013-09-15 23:11:00,66.0,58.0,-100.00,South,190,9.0,11.0,76,-99.99,,,-99.99,,2013-09-16 03:11:00,
2013-09-15 23:44:00,67.0,58.0,-100.00,SSW,200,11.0,13.0,72,-99.99,,,-99.99,,2013-09-16 03:44:00,